Powrót do katalogu

STARLINK-33562

AktywnyŁącznośćVLEO
NORAD 62102·PAYLOAD·🇺🇸 United States

Wystrzelony Nov 25, 2024 z Cape Canaveral Space Force Station

Loading…

Następne Przeloty (najbliższe 24 godziny)

TLE

ŚwieżeSource: CelesTrak SupGP

Epoka: Sep 14, 2026, 15:16 UTC

1 62102C 24220Q   26257.63659722 -.00024917  00000+0 -90277-3 0  2572
2 62102  43.0010 218.3693 0001235 265.2461 298.6701 15.27581147    15

Śledź STARLINK-33562 w czasie rzeczywistym z AllMySat

Download on the App Store